When you browse on this site, cookies collect data to enhance your experience and personalize the content and advertising you see.
Visit our Privacy Policy to learn more. By continuing to use the site, you agree to this use of cookies and data.

Hourly Weather Samroung

Today, 15 July, Wednesday

Time Temperature Precipitation Wind Pressure Humidity
00:00 +28°C° 0.2 mm 1 mps 754 mmHg 93%
01:00 +28°C° 0.2 mm 1 mps 754 mmHg 94%
02:00 +28°C° 0.4 mm 1 mps 754 mmHg 94%
03:00 +27°C° 0.4 mm 1 mps 753 mmHg 93%
04:00 +27°C° 0.4 mm 1 mps 753 mmHg 93%
05:00 +27°C° 0.2 mm 1 mps 753 mmHg 93%
06:00 +28°C° 0.2 mm 2 mps 753 mmHg 93%
07:00 +28°C° 0.2 mm 2 mps 753 mmHg 92%
08:00 +29°C° 0 mm 2 mps 754 mmHg 86%
09:00 +31°C° 0 mm 3 mps 754 mmHg 80%
10:00 +33°C° 0 mm 3 mps 754 mmHg 74%
11:00 +34°C° 0 mm 3 mps 754 mmHg 71%
12:00 +34°C° 0 mm 3 mps 753 mmHg 68%
13:00 +35°C° 0 mm 4 mps 753 mmHg 65%
14:00 +34°C° 0.4 mm 4 mps 752 mmHg 67%
15:00 +34°C° 0.4 mm 4 mps 752 mmHg 69%
16:00 +33°C° 0.4 mm 4 mps 751 mmHg 72%
17:00 +31°C° 0 mm 3 mps 751 mmHg 77%
18:00 +30°C° 0 mm 2 mps 752 mmHg 82%
19:00 +29°C° 0 mm 2 mps 752 mmHg 87%
20:00 +29°C° 0 mm 2 mps 752 mmHg 88%
21:00 +28°C° 0 mm 2 mps 753 mmHg 90%
22:00 +28°C° 0 mm 2 mps 753 mmHg 91%
23:00 +28°C° 0 mm 2 mps 753 mmHg 91%

Tomorrow, 16 July, Thursday

Time Temperature Precipitation Wind Pressure Humidity
00:00 +28°C° 0 mm 2 mps 753 mmHg 92%
01:00 +28°C° 0 mm 2 mps 753 mmHg 92%
02:00 +28°C° 0 mm 2 mps 753 mmHg 93%
03:00 +28°C° 0 mm 1 mps 753 mmHg 94%
04:00 +27°C° 0 mm 1 mps 752 mmHg 94%
05:00 +28°C° 0.1 mm 1 mps 753 mmHg 93%
06:00 +28°C° 0.1 mm 1 mps 753 mmHg 91%
07:00 +29°C° 0.1 mm 1 mps 753 mmHg 89%
08:00 +30°C° 0.5 mm 1 mps 753 mmHg 82%
09:00 +32°C° 0.5 mm 1 mps 753 mmHg 74%
10:00 +33°C° 0.5 mm 1 mps 754 mmHg 66%
11:00 +34°C° 1.9 mm 2 mps 753 mmHg 71%
12:00 +32°C° 1.9 mm 2 mps 753 mmHg 76%
13:00 +32°C° 1.9 mm 2 mps 752 mmHg 81%
14:00 +33°C° 0.3 mm 3 mps 752 mmHg 78%
15:00 +33°C° 0.3 mm 3 mps 751 mmHg 76%
16:00 +33°C° 0.3 mm 3 mps 751 mmHg 73%
17:00 +31°C° 0 mm 3 mps 751 mmHg 79%
18:00 +30°C° 0 mm 2 mps 752 mmHg 85%
19:00 +29°C° 0 mm 1 mps 752 mmHg 91%
20:00 +28°C° 0 mm 1 mps 752 mmHg 91%
21:00 +28°C° 0 mm 1 mps 753 mmHg 91%
22:00 +28°C° 0 mm 1 mps 754 mmHg 91%
23:00 +28°C° 0.2 mm 1 mps 753 mmHg 91%

Day after tomorrow, 17 July, Friday

Time Temperature Precipitation Wind Pressure Humidity
00:00 +28°C° 0.2 mm 1 mps 753 mmHg 91%
01:00 +28°C° 0.2 mm 1 mps 753 mmHg 91%
02:00 +27°C° 0.6 mm 1 mps 753 mmHg 92%
03:00 +27°C° 0.6 mm 1 mps 753 mmHg 93%
04:00 +27°C° 0.6 mm 1 mps 753 mmHg 93%
05:00 +28°C° 0 mm 1 mps 753 mmHg 92%
06:00 +28°C° 0 mm 1 mps 753 mmHg 91%
07:00 +27°C° 0 mm 0 mps 754 mmHg 89%
08:00 +30°C° 0.1 mm 1 mps 754 mmHg 82%
09:00 +32°C° 0.1 mm 1 mps 754 mmHg 74%
10:00 +33°C° 0.1 mm 1 mps 754 mmHg 66%
11:00 +34°C° 0.5 mm 2 mps 754 mmHg 68%
12:00 +34°C° 0.5 mm 2 mps 753 mmHg 70%
13:00 +34°C° 0.5 mm 2 mps 753 mmHg 72%
14:00 +34°C° 0.6 mm 2 mps 753 mmHg 74%
15:00 +33°C° 0.6 mm 3 mps 752 mmHg 75%
16:00 +33°C° 0.6 mm 3 mps 752 mmHg 76%
17:00 +31°C° 0.1 mm 2 mps 752 mmHg 80%
18:00 +30°C° 0.1 mm 2 mps 753 mmHg 85%
19:00 +28°C° 0.1 mm 2 mps 753 mmHg 90%
20:00 +28°C° 0.1 mm 1 mps 754 mmHg 90%
21:00 +28°C° 0.1 mm 1 mps 754 mmHg 91%
22:00 +28°C° 0.1 mm 1 mps 755 mmHg 92%
23:00 +28°C° 0 mm 1 mps 755 mmHg 92%

18 July, Saturday

Time Temperature Precipitation Wind Pressure Humidity
00:00 +27°C° 0 mm 1 mps 754 mmHg 92%
01:00 +27°C° 0 mm 1 mps 754 mmHg 93%
02:00 +27°C° 0 mm 1 mps 754 mmHg 92%
03:00 +27°C° 0 mm 1 mps 754 mmHg 92%
04:00 +25°C° 0 mm 0 mps 754 mmHg 92%
05:00 +25°C° 0 mm 0 mps 754 mmHg 90%
06:00 +26°C° 0 mm 0 mps 754 mmHg 88%
07:00 +26°C° 0 mm 0 mps 755 mmHg 86%
08:00 +30°C° 0 mm 1 mps 755 mmHg 79%
09:00 +32°C° 0 mm 1 mps 755 mmHg 71%
10:00 +33°C° 0 mm 1 mps 755 mmHg 63%
11:00 +34°C° 0 mm 2 mps 755 mmHg 63%
12:00 +34°C° 0 mm 2 mps 754 mmHg 63%
13:00 +35°C° 0 mm 2 mps 754 mmHg 64%
14:00 +34°C° 0 mm 3 mps 753 mmHg 64%
15:00 +34°C° 0 mm 3 mps 753 mmHg 64%
16:00 +34°C° 0 mm 3 mps 752 mmHg 64%
17:00 +32°C° 0 mm 2 mps 752 mmHg 71%
18:00 +30°C° 0 mm 2 mps 753 mmHg 78%
19:00 +28°C° 0 mm 2 mps 753 mmHg 85%
20:00 +28°C° 0 mm 2 mps 754 mmHg 86%
21:00 +28°C° 0 mm 1 mps 754 mmHg 87%
22:00 +28°C° 0 mm 1 mps 755 mmHg 88%
23:00 +27°C° 0 mm 1 mps 755 mmHg 88%

19 July, Sunday

Time Temperature Precipitation Wind Pressure Humidity
00:00 +27°C° 0 mm 1 mps 754 mmHg 89%
01:00 +27°C° 0 mm 1 mps 754 mmHg 89%
02:00 +27°C° 0 mm 1 mps 754 mmHg 89%
03:00 +27°C° 0 mm 1 mps 754 mmHg 90%
04:00 +27°C° 0 mm 1 mps 754 mmHg 90%
05:00 +27°C° 0 mm 1 mps 754 mmHg 89%
06:00 +28°C° 0 mm 1 mps 754 mmHg 88%
07:00 +28°C° 0 mm 1 mps 754 mmHg 86%
08:00 +30°C° 0 mm 1 mps 754 mmHg 79%
09:00 +31°C° 0 mm 2 mps 754 mmHg 72%
10:00 +34°C° 0 mm 2 mps 755 mmHg 65%
11:00 +34°C° 0.4 mm 2 mps 754 mmHg 67%
12:00 +34°C° 0.4 mm 3 mps 753 mmHg 68%
13:00 +34°C° 0.4 mm 3 mps 753 mmHg 70%
14:00 +33°C° 0.5 mm 3 mps 753 mmHg 72%
15:00 +33°C° 0.5 mm 3 mps 752 mmHg 74%
16:00 +33°C° 0.5 mm 3 mps 752 mmHg 76%
17:00 +31°C° 0.2 mm 3 mps 752 mmHg 81%
18:00 +29°C° 0.2 mm 3 mps 752 mmHg 87%
19:00 +28°C° 0.2 mm 2 mps 752 mmHg 92%
20:00 +28°C° 0 mm 2 mps 753 mmHg 92%
21:00 +28°C° 0 mm 2 mps 754 mmHg 93%
22:00 +28°C° 0 mm 2 mps 754 mmHg 93%
23:00 +28°C° 0 mm 2 mps 754 mmHg 93%

20 July, Monday

Time Temperature Precipitation Wind Pressure Humidity
00:00 +27°C° 0 mm 2 mps 754 mmHg 94%
01:00 +27°C° 0 mm 2 mps 753 mmHg 94%
02:00 +27°C° 0 mm 2 mps 753 mmHg 94%
03:00 +27°C° 0 mm 2 mps 753 mmHg 95%
04:00 +27°C° 0 mm 2 mps 753 mmHg 95%
05:00 +28°C° 0.1 mm 2 mps 753 mmHg 93%
06:00 +28°C° 0.1 mm 2 mps 753 mmHg 92%
07:00 +29°C° 0.1 mm 2 mps 754 mmHg 90%
08:00 +30°C° 0.1 mm 3 mps 754 mmHg 85%
09:00 +31°C° 0.1 mm 3 mps 754 mmHg 80%
10:00 +33°C° 0.1 mm 3 mps 754 mmHg 75%
11:00 +33°C° 0.2 mm 3 mps 754 mmHg 73%
12:00 +34°C° 0.2 mm 4 mps 753 mmHg 71%
13:00 +34°C° 0.2 mm 4 mps 753 mmHg 68%
14:00 +33°C° 0.8 mm 4 mps 753 mmHg 73%
15:00 +32°C° 0.8 mm 4 mps 752 mmHg 78%
16:00 +30°C° 0.8 mm 4 mps 752 mmHg 83%
17:00 +30°C° 0.9 mm 3 mps 752 mmHg 86%
18:00 +29°C° 0.9 mm 3 mps 752 mmHg 90%
19:00 +28°C° 0.9 mm 2 mps 753 mmHg 94%
20:00 +28°C° 0.6 mm 2 mps 753 mmHg 94%
21:00 +28°C° 0.6 mm 1 mps 754 mmHg 94%
22:00 +27°C° 0.6 mm 1 mps 754 mmHg 94%
23:00 +27°C° 0.8 mm 1 mps 754 mmHg 94%
Show more